{"data":{"norad_id":64297,"epoch":"2026-05-25T00:58:17.140224Z","epoch_age_seconds":71748,"freshness":"FRESH","line1":"1 64297U 25123G   26145.04047616  .00003718  00000+0  31908-3 0  9999","line2":"2 64297  70.0017   2.0079 0002952 262.1685  97.9139 14.98352272 53055","mean_motion":14.98352272,"eccentricity":0.0002952,"inclination_deg":70.0017,"raan_deg":2.0079,"arg_perigee_deg":262.1685,"mean_anomaly_deg":97.9139,"bstar":0.00031908,"rev_number":5305,"period_min":96.105570559711,"perigee_km":569.93534086482,"apogee_km":574.03869408474,"semimajor_km":6950.1240174748,"source":"CELESTRAK","updated_at":"2026-05-25T13:38:20.365838Z"}}